[[{"header":{"parameterUnit":"m.s-1","parameterCategory":1,"la1":30.2992,"la2":30.254,"lo1":-89.0895,"lo2":-89.0443,"dy":0.0025,"dx":0.0025,"nx":19,"ny":19,"refTime":"2026-05-01T21:00:00:Z","depth":0,"parameterNumber":2,"parameterNumberName":"U-component_of_WINDS"},"data":[0,0,0,-8.1798,-8.1802,-8.1931,-8.1932,-8.215,-8.2152,0,0,0,0,0,0,0,0,0,0,0,-8.1793,-8.1796,-8.1798,-8.1802,-8.1931,-8.1932,-8.2149,-8.2152,0,0,0,0,0,0,0,0,0,0,0,-8.1792,-8.1795,-8.1798,-8.1803,-8.1931,-8.1932,-8.2149,-8.2032,0,0,0,0,0,0,0,0,0,0,-8.1897,-8.1925,-8.1794,-8.1798,-8.1804,-8.1931,-8.1932,-8.2026,-8.2039,-8.2114,0,-8.219,0,-8.2175,-8.217,-8.2171,0,0,0,-8.1777,-8.1914,-8.1919,-8.1799,-8.1805,-8.1931,-8.1866,-8.2033,-8.2048,-8.2133,-8.2192,-8.2199,-8.2179,-8.2172,-8.2173,-8.2686,-8.269,0,0,-8.177,-8.1834,-8.1908,-8.1931,-8.1915,-8.1862,-8.187,-8.2041,-8.2111,-8.2193,-8.2203,-8.2182,-8.2174,-8.2176,-8.2683,-8.2687,0,0,0,-8.1766,-8.1831,-8.1829,-8.1923,-8.1943,-8.1867,-8.1876,-8.2103,-8.2097,-8.2205,-8.2185,-8.2175,-8.2179,-8.2679,-8.2685,-8.2923,0,0,0,-8.1761,-8.1828,-8.1828,-8.1868,-8.1941,-8.2025,-8.1935,-8.2086,-8.2103,-8.2184,-8.2175,-8.2181,-8.2675,-8.2682,-8.2908,-8.3026,0,0,0,-8.1773,-8.1829,-8.1859,-8.1871,-8.1929,-8.202,-8.2024,-8.2088,-8.2092,-8.2171,-8.2182,-8.2672,-8.2681,-8.2894,-8.3003,-8.318,0,0,0,-8.1805,-8.207,-8.1864,-8.2151,-8.1929,-8.2167,-8.2022,-8.2196,-8.2293,-8.2177,-8.2676,-8.2684,-8.289,-8.299,-8.3166,-8.334,-8.3419,0,0,-8.2175,-8.2117,-8.228,-8.2099,-8.2391,-8.2142,-8.2467,-8.2495,-8.2444,-8.2608,-8.262,-8.2913,-8.3002,-8.3177,-8.3834,-8.3898,0,0,0,-8.2419,-8.2538,-8.26,-8.2696,-8.2723,-8.2755,-8.2726,-8.2736,-8.2872,-8.2542,-8.3021,-8.3072,-8.3172,-8.3253,-8.3306,-8.3388,-8.2724,-8.2723,-8.2722,-8.3036,-8.2955,-8.322,-8.3155,-8.3249,-8.3215,-8.3283,-8.329,-8.3182,-8.3296,-8.3346,-8.3755,-8.3851,-8.3891,-8.3977,-8.343,-8.3431,-8.3432,-8.3432,-8.3571,-8.3726,-8.3574,-8.3777,-8.3689,-8.3858,-8.3835,-8.3752,-8.3897,-8.3711,-8.3795,-8.3601,-8.3963,-8.4033,-8.3449,-8.3446,-8.3444,-8.3443,-8.3441,-8.3967,-8.4028,-8.4034,-8.4161,-8.4267,-8.419,-8.4336,-8.425,-8.4171,-8.4254,-8.4296,-8.4292,-8.4278,-8.428,-8.4281,-8.4283,-8.4284,-8.4285,-8.4286,-8.4377,-8.4376,-8.4509,-8.4558,-8.4606,-8.4659,-8.4626,-8.4671,-8.4698,-8.4625,-8.4625,-8.4506,-8.4012,-8.3891,-8.4308,-8.4304,-8.4301,-8.4299,-8.4297,-8.4953,-8.4808,-8.5014,-8.5063,-8.5111,-8.5222,-8.511,-8.5208,-8.5233,-8.5307,-8.5168,-8.4817,-8.4752,-8.4709,-8.4608,-8.5185,-8.5185,-8.5185,-8.5185,-8.5289,-8.5246,-8.5435,-8.5518,-8.5589,-8.5508,-8.5741,-8.5717,-8.5669,-8.5679,-8.5582,-8.544,-8.54,-8.5358,-8.5301,-8.5205,-8.5921,-8.5922,-8.5923,-8.5638,-8.5598,-8.5814,-8.5764,-8.5795,-8.5824,-8.604,-8.6141,-8.6056,-8.5951,-8.5685,-8.5654,-8.5423,-8.5352,-8.5244,-8.5157,-8.498,0,0]},{"header":{"parameterUnit":"m.s-1","parameterCategory":1,"la1":30.2992,"la2":30.254,"lo1":-89.0895,"lo2":-89.0443,"dy":0.0025,"dx":0.0025,"nx":19,"ny":19,"refTime":"2026-05-01T21:00:00:Z","depth":0,"parameterNumber":3,"parameterNumberName":"V-component_of_WINDS"},"data":[0,0,0,-5.2688,-5.2691,-5.2808,-5.2809,-5.2977,-5.2979,0,0,0,0,0,0,0,0,0,0,0,-5.2667,-5.2668,-5.2688,-5.2691,-5.2808,-5.2809,-5.2977,-5.2979,0,0,0,0,0,0,0,0,0,0,0,-5.2666,-5.2668,-5.267,-5.2692,-5.2808,-5.2809,-5.2977,-5.2881,0,0,0,0,0,0,0,0,0,0,-5.2764,-5.2758,-5.2667,-5.267,-5.2692,-5.2808,-5.2809,-5.2876,-5.2887,-5.2933,0,-5.2979,0,-5.2982,-5.2992,-5.2992,0,0,0,-5.2681,-5.2749,-5.2768,-5.267,-5.2694,-5.2808,-5.2753,-5.2882,-5.2894,-5.2948,-5.2981,-5.2987,-5.2985,-5.2993,-5.2994,-5.3296,-5.3298,0,0,-5.2674,-5.2695,-5.276,-5.2777,-5.2762,-5.2749,-5.2756,-5.2889,-5.2927,-5.2982,-5.299,-5.2988,-5.2994,-5.2996,-5.3295,-5.3297,0,0,0,-5.2663,-5.2691,-5.2706,-5.2771,-5.279,-5.2753,-5.2761,-5.2921,-5.2924,-5.2992,-5.299,-5.2995,-5.2998,-5.3293,-5.3295,-5.341,0,0,0,-5.2658,-5.2684,-5.2704,-5.2718,-5.2789,-5.2858,-5.279,-5.2915,-5.2929,-5.2989,-5.2995,-5.3,-5.329,-5.3294,-5.3403,-5.3461,0,0,0,-5.2654,-5.2683,-5.2705,-5.2719,-5.277,-5.2855,-5.2866,-5.2918,-5.2928,-5.2993,-5.3,-5.3289,-5.3293,-5.3396,-5.345,-5.3547,0,0,0,-5.2656,-5.2805,-5.2707,-5.2872,-5.2769,-5.2925,-5.2865,-5.2979,-5.3048,-5.2996,-5.3291,-5.3295,-5.3394,-5.3443,-5.354,-5.3634,-5.3675,0,0,-5.2855,-5.283,-5.2925,-5.2841,-5.302,-5.2906,-5.31,-5.3143,-5.313,-5.3241,-5.3248,-5.3405,-5.3449,-5.3546,-5.3894,-5.3927,0,0,0,-5.2995,-5.3064,-5.3107,-5.3174,-5.3211,-5.3247,-5.3257,-5.3273,-5.3366,-5.3192,-5.3465,-5.3491,-5.3547,-5.359,-5.3618,-5.3665,-5.3316,-5.3316,-5.3315,-5.3308,-5.3283,-5.3439,-5.3428,-5.3493,-5.3502,-5.3552,-5.3574,-5.353,-5.3594,-5.3628,-5.3842,-5.3895,-5.3915,-5.3964,-5.3674,-5.3675,-5.3675,-5.3675,-5.3599,-5.3693,-5.3629,-5.3758,-5.3729,-5.3836,-5.3849,-5.3814,-5.3908,-5.3815,-5.3863,-5.3765,-5.3952,-5.3993,-5.3684,-5.3682,-5.3681,-5.368,-5.368,-5.3802,-5.3843,-5.3859,-5.3952,-5.4026,-5.4008,-5.4102,-5.4072,-5.4044,-5.4092,-5.4124,-5.4122,-5.4116,-5.4109,-5.4109,-5.411,-5.4111,-5.4111,-5.4112,-5.4007,-5.4022,-5.4105,-5.4156,-5.4194,-5.424,-5.4249,-5.4285,-5.4317,-5.4288,-5.4288,-5.4237,-5.3974,-5.391,-5.4123,-5.4121,-5.412,-5.4119,-5.4118,-5.4314,-5.4239,-5.4369,-5.4407,-5.4462,-5.4537,-5.4497,-5.4573,-5.4598,-5.4645,-5.4583,-5.4393,-5.4365,-5.4343,-5.4289,-5.4588,-5.4588,-5.4588,-5.4588,-5.4486,-5.4468,-5.4593,-5.4656,-5.4714,-5.4691,-5.4836,-5.4843,-5.4838,-5.4852,-5.4803,-5.4729,-5.4708,-5.4692,-5.4662,-5.4611,-5.4986,-5.4986,-5.4986,-5.4673,-5.4659,-5.479,-5.4785,-5.4826,-5.4861,-5.4996,-5.5069,-5.5048,-5.5002,-5.4862,-5.4845,-5.4724,-5.4686,-5.464,-5.4594,-5.4501,0,0]}]]